Koreasat 2 Rocket1 - Orbit

View from above orbital plane
View from above orbital plane
View from above satellite
View from above satellite

Ground track
Ground track

The orbit data is extracted from the following two-line orbital elements,

1 23769U 96003B   13170.04105925  .00022996  00000-0  46528-3 0  4163
2 23769 025.2956 243.6590 0232133 151.2399 210.1665 15.21270324926107
Epoch (UTC): 19 June 2013 00:59:07
Eccentricity: 0.0232133
inclination: 25.2956°
perigee height: 342 km
apogee height: 662 km
right ascension of ascending node: 243.6590°
argument of perigee: 151.2399°
revolutions per day: 15.21270324
mean anomaly at epoch: 210.1665°
orbit number at epoch: 92610

The dashed part of the orbit path shows where the satellite is in the earth's shadow,  

Developed and maintained by Chris Peat, Heavens-Above GmbH. Please read the updated FAQ before sending e-mail. Imprint. DLR